Location: Barrio Las Casetas Oliver�
(41.4991°N, 1.9841°E)
Time: 18:07:50
(UTC+00:00)

Daily predictions for brighter satellites

Satellite Brightness Start Highest point End
(mag) Time Altitude Azimuth Time Altitude Azimuth Time Altitude Azimuth
Feng Yun 1-1 Rocket 4.4 17:54:05 10° SSE 17:59:50 72° ENE 18:05:43 10° N
Cosmos 1607 4.3 17:54:32 10° SW 18:00:55 74° NW 18:07:26 10° NNE
USA 307 3.1 18:01:16 10° SW 18:05:27 58° SE 18:09:40 10° ENE
CZ-4 R/B 1.7 18:01:53 10° SE 18:05:28 38° ENE 18:09:04 10° N
Meteor 1-10 Rocket 4.2 18:01:15 10° N 18:07:00 66° ENE 18:12:35 10° SSE
SeaSat 1 2.6 18:02:46 10° NE 18:07:37 54° ESE 18:12:26 10° S
Cosmos 2263 Rocket 3.4 18:04:48 10° N 18:09:02 22° NE 18:13:14 10° ESE
SKYMED 2 3.7 18:05:16 10° N 18:09:38 82° WNW 18:13:58 10° SSW
USA 306 2.9 18:07:35 10° SW 18:11:50 69° SE 18:16:05 10° NE
FALCON 9 DEB 2.9 18:08:41 10° SW 18:11:51 77° SE 18:15:02 10° NE
Cosmos 1939 Rocket 4.1 18:11:10 10° S 18:14:53 46° W 18:18:37 10° NNW
USA 308 2.9 18:11:28 10° SW 18:15:43 71° SE 18:19:58 10° NE
Cosmos 2227 Rocket 2.9 18:11:36 10° NNW 18:17:10 60° WSW 18:22:43 10° S
Cosmos 1743 Rocket 3.6 18:13:21 10° S 18:17:42 85° W 18:22:07 10° N
Cosmos 1805 Rocket 3.7 18:14:37 10° SSE 18:18:48 49° E 18:23:02 10° NNE
ERBS 4.5 18:19:50 10° SE 18:20:30 10° ESE 18:21:02 10° ESE
H-2A R/B 4.2 18:18:36 10° N 18:22:06 28° WNW 18:25:35 10° SW
Cosmos 2184 Rocket 4.5 18:18:11 10° SSE 18:23:41 35° E 18:29:12 10° NNE
Cosmos 1850 Rocket 3.9 18:18:33 10° NNW 18:23:45 79° ENE 18:28:56 10° SSE
H-2A R/B 2.1 18:19:44 10° SSE 18:25:03 67° ENE 18:30:29 10° N
ARGOS 3.4 18:20:48 10° SE 18:25:57 47° ENE 18:31:09 10° N
Cosmos 1862 4.3 18:22:44 10° SSW 18:26:38 51° W 18:30:36 10° N
Meteor 1-27 Rocket 3.7 18:21:25 10° N 18:26:53 59° ENE 18:32:19 10° SSE
Cosmos 2278 3.7 18:23:38 10° SSW 18:29:15 69° ESE 18:34:55 10° NNE
Cosmos 2228 Rocket 3.0 18:25:23 10° N 18:29:55 80° E 18:34:24 10° S
FALCON 9 DEB 3.3 18:27:27 10° WSW 18:30:36 60° NW 18:33:29 12° NE
SL-08 RB Rocket 4.3 18:26:51 10° SE 18:30:51 33° ENE 18:34:54 10° N
Aureole 1 Rocket 4.2 18:24:22 10° NNW 18:31:47 83° WSW 18:37:26 10° SSE
Cosmos 1271 Rocket 3.7 18:29:23 10° NNE 18:32:29 24° ENE 18:35:17 11° SE
COSMOS 2455 3.0 18:26:51 10° NNW 18:32:43 51° NE 18:38:32 10° SE
HJ-1C 3.7 18:30:27 10° SE 18:33:37 42° ENE 18:36:47 10° N
Cosmos 2297 Rocket 4.1 18:29:32 10° NW 18:34:32 33° WSW 18:39:30 10° SSW
Cosmos 1461 4.3 18:31:23 10° SSE 18:35:03 23° ESE 18:37:22 16° ENE
Cosmos 1812 4.1 18:34:53 10° NNW 18:38:31 42° W 18:42:07 10° SSW
CSL-04 Debris 4.3 18:33:57 10° SSE 18:39:12 54° ENE 18:44:31 10° N
CZ-2C R/B 2.9 18:34:26 10° NNE 18:39:47 48° E 18:44:59 10° S
Cosmos 1689 Rocket 1.8 18:37:01 10° NNE 18:39:53 81° ESE 18:42:44 10° S
Cosmos 1666 Rocket 4.0 18:36:42 10° SSE 18:40:44 38° E 18:44:45 10° NNE
Cosmos 2084 3.9 18:36:44 10° SW 18:40:52 61° NW 18:45:08 10° NNE
CZ-2C R/B 4.3 18:36:11 10° S 18:41:49 50° W 18:47:22 10° NNW
BREEZE-M DEB (TANK) 3.3 18:42:28 10° WNW 18:44:22 23° N 18:46:16 14° NE
Cosmos 1331 Rocket 4.0 18:39:16 10° SSW 18:44:32 85° ESE 18:49:50 10° NNE
Gbstr 26 Del rocket 3.1 18:40:57 10° SW 18:45:14 90° NNW 18:49:30 15° NE
CSL-04 Rocket 3.8 18:41:07 10° SSE 18:46:33 59° ENE 18:52:01 10° N
Cosmos 2181 Rocket 4.1 18:41:09 10° N 18:47:38 88° W 18:54:03 10° S
NOSS 2-1 (C) 4.4 18:42:41 10° NNW 18:47:47 60° NE 18:54:56 10° SE
Abrixas rocket 3.4 18:48:08 10° S 18:49:31 18° SSE 18:49:31 18° SSE
TSX-5 3.9 18:46:32 10° NNW 18:50:50 51° ENE 18:52:49 23° SE
NOSS 2-1 (D) 4.4 18:48:44 10° NNW 18:53:54 66° NE 19:01:08 10° SE
FALCON 9 DEB 4.0 18:52:04 10° WSW 18:55:07 41° NNW 18:56:59 20° NNE
YAOGAN 1 3.0 18:50:59 10° S 18:55:15 63° W 18:59:33 10° NNW
Helios 1A Rocket 2.8 18:51:41 10° SSE 18:55:45 80° ENE 18:59:49 10° N
Okean-O 3.1 18:52:12 10° S 18:56:35 64° WSW 19:01:01 10° NNW
SL-4 R/B 3.5 18:58:27 10° WNW 19:01:25 24° NNW 19:03:19 16° NNE
Cosmos 1980 Rocket 2.8 18:59:03 10° SW 19:04:36 59° WNW 19:10:14 10° NNE
Sich 1 3.5 19:02:45 10° SSW 19:07:03 63° W 19:11:26 10° N
Lacrosse 5 rocket 1.8 19:04:02 10° NW 19:08:22 62° SW 19:11:00 21° SSE
Cosmos 1302 Rocket 3.8 19:07:25 10° SSW 19:12:35 77° ESE 19:17:47 10° NNE
Cosmos 2322 Rocket 2.6 19:09:00 10° S 19:14:05 37° ESE 19:15:03 34° E
Cosmos 44 4.3 19:10:14 10° NW 19:15:32 53° WSW 19:20:42 10° SSE
Cosmos 2227 4.2 19:11:27 10° NNW 19:17:12 67° ENE 19:20:30 26° SE
Cosmos 968 Rocket 3.9 19:13:32 10° N 19:18:31 41° ENE 19:19:11 40° E
Cosmos 1437 3.2 19:17:32 10° NNW 19:20:22 53° W 19:21:07 38° SSW
Cosmos 1707 Rocket 3.7 19:16:35 10° NNW 19:21:00 72° W 19:25:19 10° S
Cosmos 1867 4.4 19:16:33 10° SW 19:21:50 50° NW 19:27:09 10° NNE
Cosmos 1633 Rocket 3.0 19:18:45 10° S 19:23:09 86° W 19:27:35 10° N
ERS-2 4.3 19:21:45 10° N 19:24:52 27° WNW 19:27:57 10° SW
Meteor 1-20 Rocket 4.2 19:21:33 10° SSW 19:27:01 78° W 19:32:30 10° N
SL-16 R/B 2.1 19:27:48 10° SSW 19:33:25 69° ESE 19:37:13 21° NNE
USA 234 4.0 19:29:23 13° NE 19:34:59 49° NNW 19:41:12 10° WSW
USA 305 4.4 19:34:01 10° W 19:37:50 31° NNW 19:39:15 25° N
Meteor 1-19 Rocket 4.2 19:33:18 10° N 19:39:21 79° E 19:42:34 28° SSE
MOS 1 4.2 19:39:28 53° ESE 19:40:26 61° ENE 19:46:02 10° N
CZ-4 R/B 4.5 19:38:32 10° SW 19:40:39 14° W 19:42:47 10° WNW
Resurs 01 Rocket 4.1 19:44:37 11° NNE 19:44:37 11° NNE 19:44:44 10° NNE
Ariane Rocket 2.9 19:43:24 64° ENE 19:43:24 64° ENE 19:48:19 10° N
USA 307 4.5 19:41:57 10° W 19:45:41 29° NNW 19:46:44 26° N
SME Rocket 4.3 19:37:46 10° NNE 19:46:59 79° ESE 19:52:49 10° S
Cosmos 2154 Rocket 4.1 19:40:56 10° SSW 19:47:10 76° W 19:53:24 10° N
DMSP B5D2-2 4.4 19:42:07 10° N 19:47:19 65° WNW 19:52:27 10° SSW
IRS-1A Rocket 4.1 19:47:27 58° SE 19:48:32 75° ENE 19:54:10 10° N
Nadezhda 3 Rocket 4.0 19:43:37 10° N 19:50:00 82° W 19:56:22 10° S
Cosmos 2263 Rocket 2.6 19:47:54 10° NNW 19:53:22 60° WSW 19:55:56 31° S
Cosmos 1470 Rocket 4.2 19:50:47 10° SSW 19:56:47 39° N 19:59:43 10° N
Meteor 1-14 Rocket 4.1 19:52:02 10° S 19:57:41 89° W 20:03:16 10° N
SJ-6B 4.1 20:04:15 39° NW 20:04:15 39° NW 20:07:04 10° NNW
GP-B 4.1 20:10:28 45° WNW 20:10:28 45° WNW 20:14:31 10° NNW
Meteor 2-4 Rocket 3.9 20:07:01 10° N 20:11:52 65° N 20:11:52 65° N
Cosmos 1461 4.2 20:09:22 10° SW 20:13:50 44° NW 20:13:50 44° NW
BREEZE-M DEB (TANK) 4.4 19:59:12 10° W 20:16:29 64° N 20:17:22 59° NNE
Cosmos 1844 Rocket 4.2 20:26:08 10° NNW 20:28:45 28° N 20:28:45 28° N
Cosmos 2341 Rocket 4.3 20:25:43 10° SSW 20:32:00 66° W 20:38:18 10° N
Cosmos 2322 Rocket 3.8 20:53:08 10° WSW 20:57:04 30° WNW 20:57:04 30° WNW
SL-16 R/B 4.5 21:14:01 10° W 21:18:05 20° NW 21:19:19 18° NNW
